Change the Weather History Date:

Tuesday, March 19, 2013

  Actual Average Record
Temperature  
Mean Temperature 46 °F 52 °F  
Max Temperature 60 °F 63 °F 96 °F (1907)
Min Temperature 32 °F 41 °F 8 °F (1923)
Degree Days  
Heating Degree Days 19 13  
Month to date heating degree days 318 300  
Since 1 July heating degree days 2990 3211  
Cooling Degree Days 0 0  
Month to date cooling degree days 4 0  
Year to date cooling degree days 6 1  
Moisture  
Dew Point 26 °F    
Average Humidity 54    
Maximum Humidity 82    
Minimum Humidity 26    
Precipitation  
Precipitation 0.00 in 0.11 in 2.81 in (2012)
Month to date precipitation 0.28 1.96  
Year to date precipitation 5.00 5.47  
Sea Level Pressure  
Sea Level Pressure 30.14 in    
Wind  
Wind Speed 8 mph (NE)    
Max Wind Speed 23 mph    
Max Gust Speed 30 mph    
Visibility 10 miles    
Events      
T = Trace of Precipitation, MM = Missing Value Source: NWS Daily Summary

Daily Weather History Graph

Daily Weather History Graph

Search for Another Location

Airport or City:

Trip Planner

Search our weather history database for the weather conditions in past years. The results will help you decide how hot, cold, wet, or windy it might be!

Date:

Astronomy

Mar. 19, 2013 Rise Set
Actual Time 7:28 AM CDT 7:34 PM CDT
Civil Twilight 7:02 AM CDT 8:00 PM CDT
Nautical Twilight 6:32 AM CDT 8:30 PM CDT
Astronomical Twilight 6:02 AM CDT 9:00 PM CDT
Moon 12:29 PM CDT (3/19) 2:12 AM CDT (3/19)
Length of Visible Light 12h 57m
Length of Day
12h 06m
Waxing Crescent, 50% of the Moon is Illuminated
Mar 19
Waxing Crescent
Mar 19
First Quarter
Mar 27
Full
Apr 2
Last Quarter
Apr 10
New

Hourly Weather History & Observations

Time (CDT) Temp. Windchill Dew Point Humidity Pressure Visibility Wind Dir Wind Speed Gust Speed Precip Events Conditions
12:53 AM 39.9 °F - 28.0 °F 63% 30.03 in 10.0 mi Calm Calm - N/A   Clear
1:53 AM 41.0 °F - 28.0 °F 60% 30.03 in 10.0 mi Calm Calm - N/A   Clear
2:53 AM 34.0 °F 26.6 °F 28.0 °F 79% 30.04 in 10.0 mi North 9.2 mph - N/A   Clear
3:53 AM 37.0 °F 33.3 °F 28.9 °F 73% 30.05 in 10.0 mi NW 4.6 mph - N/A   Clear
4:53 AM 36.0 °F 32.1 °F 28.0 °F 73% 30.06 in 10.0 mi NW 4.6 mph - N/A   Clear
5:53 AM 33.1 °F 26.1 °F 28.9 °F 85% 30.10 in 10.0 mi NNW 8.1 mph - N/A   Clear
6:53 AM 34.0 °F 28.0 °F 28.0 °F 79% 30.14 in 10.0 mi North 6.9 mph - N/A   Mostly Cloudy
7:53 AM 37.9 °F 32.7 °F 26.1 °F 62% 30.16 in 10.0 mi NNE 6.9 mph - N/A   Clear
8:53 AM 42.1 °F 37.1 °F 26.1 °F 53% 30.18 in 10.0 mi ENE 8.1 mph - N/A   Clear
9:53 AM 46.9 °F - 23.0 °F 39% 30.19 in 10.0 mi East 6.9 mph - N/A   Clear
10:53 AM 50.0 °F - 19.0 °F 29% 30.18 in 10.0 mi East 10.4 mph - N/A   Clear
11:53 AM 53.1 °F - 19.0 °F 26% 30.18 in 10.0 mi ENE 11.5 mph - N/A   Clear
12:53 PM 55.9 °F - 21.0 °F 26% 30.16 in 10.0 mi East 11.5 mph - N/A   Clear
1:53 PM 57.9 °F - 24.1 °F 27% 30.13 in 10.0 mi SE 6.9 mph - N/A   Partly Cloudy
2:53 PM 60.1 °F - 26.1 °F 27% 30.11 in 10.0 mi Variable 3.5 mph - N/A   Clear
3:53 PM 59.0 °F - 26.1 °F 28% 30.11 in 10.0 mi Calm Calm - N/A   Partly Cloudy
4:53 PM 59.0 °F - 27.0 °F 29% 30.11 in 10.0 mi ESE 6.9 mph - N/A   Partly Cloudy
5:53 PM 59.0 °F - 26.1 °F 28% 30.12 in 10.0 mi ENE 5.8 mph - N/A   Partly Cloudy
6:53 PM 55.4 °F - 24.8 °F 31% 30.12 in 10.0 mi NE 13.8 mph - N/A   Clear
7:53 PM 50.0 °F - 26.1 °F 39% 30.17 in 10.0 mi NNE 12.7 mph 28.8 mph N/A   Clear
8:53 PM 46.0 °F 39.6 °F 26.1 °F 46% 30.21 in 10.0 mi NE 15.0 mph 20.7 mph N/A   Clear
9:53 PM 45.0 °F 39.7 °F 28.0 °F 52% 30.24 in 10.0 mi NE 10.4 mph - N/A   Clear
10:53 PM 44.1 °F 40.1 °F 30.0 °F 58% 30.26 in 10.0 mi NE 6.9 mph - N/A   Clear
11:53 PM 43.0 °F 39.5 °F 30.0 °F 60% 30.27 in 10.0 mi NNE 5.8 mph - N/A   Clear